Theta_e
322 325 324 323 323 322 321 320 320 319 318 317 314 312 311 311 311 310 310 309 310 310 310 310 309 308 307 308 308 308 308 307 307 308 308 308 307 307 308 307 307 306 305 305 305 306 306 306 307 307 307 306
322 325 324 323 323 321 320 319 319 318 317 316 312 310 310 310 310 309 309 308 309 310 309 308 307 306 307 307 308 307 307 307 308 308 308 308 307 307 307 306 305 305 304 304 305 305 305 305 306 306 306 306
323 324 323 322 321 320 320 319 318 317 317 314 310 309 309 309 309 308 308 308 308 308 308 306 305 306 306 306 307 307 308 308 308 308 307 307 307 307 306 305 304 304 304 304 304 305 305 305 305 306 306 306
323 323 322 322 321 320 320 319 318 317 316 312 309 308 308 309 309 308 307 308 307 307 307 305 304 306 306 306 307 307 308 308 307 307 306 306 306 305 304 304 303 304 304 303 304 305 304 305 305 305 305 306
322 322 322 321 321 320 319 318 317 316 314 310 308 308 308 308 307 307 306 305 305 305 306 303 303 306 306 307 307 307 307 307 306 306 305 305 304 303 303 303 303 303 303 303 303 304 303 304 304 304 305 305
321 321 321 321 320 319 318 317 315 313 311 308 307 307 307 306 306 305 304 303 302 303 304 303 302 305 306 306 307 306 306 306 305 305 304 304 303 302 301 301 302 303 303 302 303 303 302 303 303 303 304 304
320 321 321 321 320 319 317 315 314 311 308 307 306 306 306 306 305 304 303 301 301 302 303 303 301 304 306 306 306 305 305 305 304 304 303 302 301 300 300 301 302 303 303 302 302 302 302 303 302 302 303 303
321 320 320 319 319 318 317 315 313 310 307 306 306 306 306 306 305 305 302 299 301 302 302 303 301 303 305 305 305 304 304 303 303 302 301 300 299 299 300 302 302 302 302 302 302 301 301 302 302 302 302 302
321 320 319 319 319 318 317 314 312 309 307 306 306 307 306 306 305 305 302 298 301 301 301 303 301 301 303 304 303 303 302 301 301 299 298 297 297 299 301 302 301 301 301 301 301 301 301 301 301 301 301 301
321 319 319 319 319 318 317 314 310 308 306 305 306 307 306 306 305 304 301 297 300 301 301 302 301 299 300 301 301 301 300 298 297 297 295 294 296 299 301 301 301 301 301 301 301 301 301 300 300 300 300 300
321 320 319 319 317 317 317 314 310 307 306 305 306 306 306 306 304 302 299 297 300 300 299 300 300 299 298 298 299 299 298 296 294 295 294 292 295 298 299 300 300 300 300 300 300 300 300 300 299 299 299 299
320 319 319 318 316 316 317 315 310 307 305 305 306 305 305 304 302 300 297 297 300 299 299 299 298 298 296 296 298 298 298 296 294 293 293 292 295 296 297 298 299 299 299 299 299 300 300 299 298 298 298 297
320 318 318 317 316 316 316 314 311 308 305 305 306 304 303 302 301 300 296 297 299 299 300 300 299 298 294 294 296 296 296 296 294 293 292 293 294 295 295 296 296 297 297 298 298 299 299 299 298 298 297 296
319 318 317 316 316 316 315 313 312 308 305 305 304 304 303 302 301 299 297 295 296 298 300 301 300 299 296 295 295 295 294 293 293 293 292 292 293 294 295 295 296 296 297 297 298 299 299 299 298 298 297 296
318 318 317 317 317 316 315 313 312 307 304 305 304 303 303 302 301 300 297 294 294 296 299 299 299 299 297 296 295 293 293 292 292 292 292 292 292 293 295 296 296 296 296 296 297 298 298 298 298 297 297 297
318 318 318 318 317 316 314 313 312 308 307 307 306 306 304 302 302 301 300 296 293 294 295 295 297 297 295 294 292 292 292 292 292 292 292 292 292 292 294 295 296 296 296 295 295 296 297 297 296 296 297 297
318 319 318 318 318 316 314 313 312 311 311 310 310 309 308 305 303 302 301 299 295 293 292 293 293 294 294 292 291 291 292 291 291 292 292 292 291 291 292 293 294 294 294 294 294 294 295 295 294 294 295 295
318 318 318 318 317 316 314 314 313 313 313 312 311 310 310 309 307 305 303 301 298 294 292 292 292 292 292 292 291 292 291 291 291 291 291 291 291 291 291 291 292 292 292 291 292 292 292 292 292 292 292 292
318 318 318 318 317 316 314 314 314 314 313 313 312 311 310 309 309 308 305 303 301 296 293 292 292 292 292 292 292 291 291 290 291 290 291 291 291 291 290 290 290 290 290 290 290 290 290 290 290 290 290 290
318 318 318 318 317 316 314 314 314 314 313 313 313 312 312 310 309 310 309 306 303 299 296 294 292 292 292 292 292 291 290 290 291 290 290 290 290 290 290 290 290 289 289 289 289 289 289 289 289 289 289 289
318 318 318 317 317 316 315 314 314 314 313 314 313 312 312 312 310 310 309 309 307 303 300 297 293 293 293 293 292 291 291 291 291 291 290 290 290 290 290 290 289 289 289 289 289 289 289 289 289 289 289 289
318 318 318 317 316 315 315 314 314 314 313 314 314 312 312 312 311 310 310 309 309 307 305 300 296 295 293 292 292 291 291 291 291 291 290 290 290 290 290 290 290 289 289 289 289 289 288 289 289 289 289 288
318 318 318 318 317 315 315 315 314 314 314 314 313 313 313 312 311 311 310 309 309 309 308 304 301 299 295 292 292 292 292 292 292 291 290 290 290 290 290 290 289 289 289 289 289 289 288 288 288 288 288 288
318 318 318 318 317 316 315 315 314 314 313 313 313 313 313 312 312 311 311 310 309 309 309 307 305 302 298 293 292 292 292 292 292 291 291 290 290 290 290 289 289 289 289 289 289 288 288 288 288 288 288 288
319 318 318 318 317 316 316 315 315 314 313 313 313 314 313 313 312 311 311 311 310 309 309 309 307 305 301 295 293 292 292 292 292 292 291 291 290 290 289 289 289 289 289 289 288 288 288 288 288 287 287 288
319 319 319 319 318 317 317 316 315 315 314 314 314 314 313 313 312 312 311 310 310 310 309 309 308 307 305 299 295 293 292 292 292 292 291 291 290 290 289 289 289 289 289 289 289 288 288 288 287 287 287 287
317 318 318 318 317 318 317 316 316 315 314 314 314 314 314 313 312 312 311 311 310 310 309 309 308 308 307 304 298 295 293 292 292 292 291 291 291 290 290 289 289 289 289 290 289 288 288 287 287 287 287 287
315 316 316 317 316 317 317 316 316 315 315 315 314 314 314 314 313 312 311 311 310 310 310 310 309 309 309 307 303 299 295 293 292 292 291 291 291 291 290 290 289 289 289 289 289 288 288 287 287 287 288 288
313 314 314 315 315 315 315 315 315 315 314 315 315 314 314 314 313 313 312 311 310 310 310 310 310 310 309 309 307 304 300 296 293 292 291 291 291 291 291 290 290 290 289 289 289 289 288 288 288 288 289 289
312 312 312 312 313 314 314 315 315 314 314 314 314 315 314 314 313 312 312 311 311 310 310 310 310 310 310 309 308 307 305 301 296 293 291 291 291 291 291 290 289 290 290 289 288 288 288 288 289 289 289 289
309 310 311 311 311 311 312 313 313 314 313 312 313 313 313 313 312 312 312 312 311 310 310 310 310 310 309 309 308 308 308 306 303 298 294 291 290 290 290 289 289 289 289 289 288 288 287 288 289 289 290 290
Wind_Speed
27 26 26 27 26 26 23 21 21 20 18 15 14 13 15 14 14 13 11 13 14 15 15 14 13 12 15 17 17 17 15 13 12 13 14 14 14 14 14 14 14 20 25 25 22 22 22 20 19 18 17 18
27 26 27 27 26 25 23 21 20 18 16 13 13 15 17 14 12 14 13 14 15 15 15 13 12 12 16 18 17 16 15 14 14 14 14 15 15 15 15 14 17 23 25 24 22 21 21 20 20 18 18 18
27 27 28 28 27 25 23 22 19 16 13 13 14 17 19 16 13 14 15 15 15 15 14 12 12 15 17 18 18 18 17 16 15 14 14 16 16 16 15 14 21 25 24 23 21 20 20 19 18 17 16 18
29 30 30 29 27 25 23 20 17 15 14 14 15 18 21 19 15 15 15 16 16 15 15 12 15 18 18 18 19 19 18 16 15 14 14 15 15 16 16 18 26 27 25 24 21 20 21 18 17 16 16 18
31 32 30 28 26 25 21 17 15 13 14 15 17 18 20 19 15 15 14 14 15 16 15 13 17 20 19 19 19 20 18 16 16 14 14 16 16 17 17 21 28 27 25 24 21 20 18 15 16 16 16 17
33 31 28 26 24 22 18 15 12 11 14 16 17 16 16 14 12 13 14 13 13 15 16 14 18 22 20 19 19 21 19 17 16 16 15 16 15 14 16 22 27 25 24 24 22 20 16 12 15 17 17 17
32 28 25 22 20 19 16 15 11 11 14 17 16 15 13 10 9 11 13 12 13 15 16 15 18 22 21 20 20 21 21 19 17 16 17 15 12 12 17 25 26 23 22 22 22 21 16 12 14 17 17 17
28 25 23 21 19 18 17 15 11 12 15 17 16 15 13 11 11 13 11 10 13 14 16 17 18 22 23 22 22 23 23 22 20 17 16 15 13 16 24 26 24 22 20 20 22 22 17 12 13 16 17 17
27 25 24 23 21 20 18 15 12 13 17 18 17 15 13 14 15 14 9 9 13 14 16 17 17 20 23 22 21 20 20 20 19 17 15 16 19 25 28 26 23 21 20 19 22 23 17 12 12 13 15 17
29 26 25 25 23 21 19 15 13 16 18 19 20 18 17 18 16 14 11 11 13 13 15 17 16 18 20 20 19 18 16 15 15 16 16 17 24 29 29 27 25 23 22 20 20 23 20 15 13 11 11 15
28 27 26 26 25 22 20 16 15 19 19 18 21 20 21 20 16 14 13 13 13 11 14 17 16 16 17 17 17 16 15 14 13 15 16 17 24 29 30 30 28 26 24 20 19 22 22 19 17 14 11 14
28 28 28 27 26 23 21 18 17 19 19 18 19 19 19 18 15 14 14 14 14 12 11 14 15 15 16 18 18 17 17 16 15 15 17 17 21 25 28 29 29 27 24 21 21 22 23 23 21 19 13 13
29 29 29 27 26 24 21 19 18 19 20 18 16 15 15 15 15 15 15 16 15 13 10 11 12 12 13 17 19 19 18 16 15 16 16 17 17 20 24 25 25 25 24 23 22 23 24 24 23 21 16 13
30 27 26 26 24 22 20 18 18 20 20 16 13 13 13 14 15 15 15 16 16 15 14 14 13 11 11 14 15 15 15 14 14 15 15 15 15 17 22 23 23 23 23 22 23 24 24 23 22 20 18 14
27 22 22 23 22 21 20 17 17 19 18 16 14 13 12 12 14 14 14 15 17 18 18 17 16 15 14 14 14 12 13 14 14 15 15 15 15 17 22 24 23 22 21 21 24 25 25 23 22 21 19 18
24 20 19 21 23 22 19 16 15 17 16 15 13 11 11 12 13 12 12 13 16 17 18 18 18 18 17 15 15 14 13 14 15 16 16 17 17 19 23 25 24 23 22 22 23 24 25 24 23 22 21 21
23 21 18 20 24 22 20 18 15 15 13 12 11 11 11 11 11 11 10 12 14 15 16 18 19 18 17 17 17 15 14 15 15 16 16 17 18 20 23 24 25 25 24 23 23 24 24 24 24 23 23 22
25 24 19 20 23 23 22 20 17 15 12 11 10 11 12 11 10 10 10 11 11 13 16 18 18 18 18 18 17 14 14 15 15 16 16 17 19 21 22 23 24 24 24 23 23 23 24 23 23 23 22 22
26 26 22 20 22 25 26 23 20 17 15 13 11 11 12 12 11 10 10 10 11 12 15 18 18 18 19 18 16 14 15 16 17 17 17 18 19 20 21 22 23 23 23 22 22 22 22 22 22 21 21 20
26 27 25 21 22 24 25 25 22 19 18 16 14 14 13 12 13 11 10 9 10 12 15 16 17 18 18 17 14 15 17 18 18 18 19 19 19 20 20 21 22 23 22 22 21 21 21 21 20 20 20 19
30 28 25 23 23 24 24 26 23 20 20 19 17 16 15 14 14 13 11 10 11 13 14 14 16 18 17 15 15 17 18 18 18 18 19 20 20 20 20 21 22 23 23 22 21 21 21 21 20 20 20 19
32 29 27 25 24 25 25 25 23 21 21 21 20 18 17 17 15 14 13 13 13 13 13 14 16 17 16 15 16 18 18 18 19 19 20 21 21 21 21 21 22 23 22 21 21 21 21 21 20 21 20 20
34 31 29 27 25 25 25 25 24 23 22 22 21 21 21 20 18 16 15 15 15 14 14 15 16 16 15 16 18 19 19 20 20 20 21 21 21 22 22 21 21 22 22 21 21 20 21 20 20 21 21 21
35 33 31 30 28 26 25 26 25 24 23 23 23 22 22 22 20 19 16 16 17 16 16 16 17 16 15 17 19 20 20 20 20 20 21 22 22 23 23 22 22 23 23 21 21 20 21 21 21 22 22 22
34 34 33 33 31 28 27 27 27 26 25 25 24 23 23 23 22 21 18 17 17 17 17 17 17 16 16 18 20 20 20 21 20 20 21 22 22 23 24 24 24 25 24 23 23 22 22 22 22 22 24 24
33 34 36 36 33 30 30 29 27 28 29 28 27 25 25 24 24 23 20 19 18 18 18 19 19 18 17 18 20 21 20 21 21 21 22 23 24 24 25 24 24 26 26 25 25 23 22 22 23 24 25 26
34 36 38 38 36 32 31 31 30 31 31 29 29 28 28 27 26 25 24 22 21 20 19 19 20 19 18 18 20 21 21 22 23 23 23 24 25 25 26 26 26 27 27 25 24 22 22 23 22 24 28 30
34 37 38 39 37 34 34 35 35 35 33 31 30 30 30 29 27 26 26 24 24 23 21 20 21 20 18 19 20 21 22 23 24 24 24 25 26 26 27 28 28 29 28 27 25 23 21 19 18 21 25 28
31 35 37 38 38 38 37 37 36 37 36 34 32 31 31 31 29 29 28 26 26 25 23 22 22 22 21 20 21 22 22 24 24 25 24 25 27 27 28 28 28 30 30 29 28 25 20 16 16 21 20 17
28 33 35 36 37 38 37 38 38 38 37 35 33 32 31 31 31 30 29 28 28 27 26 24 24 25 24 22 22 22 23 24 25 25 25 26 27 28 28 28 29 31 31 30 30 29 26 21 18 19 17 15
23 28 32 34 35 36 36 38 38 38 36 34 34 34 33 32 31 30 30 30 30 29 28 27 26 26 25 24 24 24 24 25 26 26 26 26 28 28 29 30 31 32 32 32 32 32 32 30 24 17 14 17
Wind_Direction
177 174 174 173 174 176 169 166 179 188 192 201 209 183 139 151 168 151 144 137 133 142 148 152 160 148 127 129 135 137 136 136 135 135 138 140 146 152 153 157 155 146 139 140 145 144 140 136 133 135 140 143
179 175 173 174 175 172 173 180 191 195 201 213 198 159 135 159 174 148 146 141 145 154 151 159 159 137 130 136 136 131 130 133 135 138 142 143 147 153 155 159 152 143 141 143 144 143 139 136 137 138 142 146
179 175 170 172 176 176 185 194 200 200 212 219 185 149 139 161 175 154 147 146 157 160 157 165 144 127 129 131 130 130 134 140 144 148 153 154 154 154 154 157 150 143 144 145 142 141 137 133 137 141 145 147
176 174 172 174 181 188 196 201 203 205 220 212 171 147 150 166 174 162 150 152 164 162 162 159 132 128 130 129 133 139 143 148 153 157 164 162 159 158 158 156 151 145 144 147 145 141 138 134 137 143 148 148
171 171 177 179 185 195 198 202 205 215 221 193 161 154 159 167 171 168 163 160 163 160 164 155 134 135 135 137 145 151 151 153 162 164 168 172 170 166 161 156 151 147 146 149 150 143 136 136 139 143 148 150
170 170 179 183 189 197 196 199 203 221 213 176 157 156 156 163 163 169 175 171 162 157 165 155 140 142 142 147 155 159 158 160 168 172 177 182 179 171 159 152 149 148 150 153 155 146 133 142 149 150 153 155
170 173 181 186 195 200 195 196 202 216 197 164 154 149 144 154 155 166 171 168 164 160 165 159 149 149 148 154 161 164 166 166 168 177 188 187 179 169 154 149 149 151 153 156 160 150 135 149 161 158 160 163
177 183 190 194 201 206 199 196 202 207 187 161 152 141 141 163 174 182 174 159 165 165 168 167 160 159 158 163 170 171 172 174 173 174 178 178 169 153 148 149 151 153 156 161 166 158 139 143 167 167 165 167
192 196 198 197 202 208 203 199 197 195 187 166 149 140 158 181 189 194 186 163 166 169 174 175 170 170 172 175 178 177 177 179 180 174 162 162 158 146 146 152 153 153 159 168 174 171 153 141 164 176 171 169
198 200 201 198 201 207 203 200 192 190 192 171 151 154 176 191 195 197 190 171 169 175 179 182 180 179 183 186 184 182 184 182 177 177 170 163 157 152 152 155 156 159 165 172 181 181 171 154 151 166 177 173
198 201 203 202 203 208 206 201 192 193 197 174 160 171 185 193 195 192 186 173 176 182 178 184 192 189 188 191 189 185 187 188 179 178 179 169 162 162 160 158 160 164 169 177 186 188 182 172 158 161 178 176
198 200 201 202 204 208 208 204 198 198 200 183 173 181 185 188 187 186 184 177 181 188 177 183 193 194 189 187 189 189 190 193 187 180 181 173 169 171 168 164 166 167 172 181 188 190 188 185 178 176 181 177
195 198 200 202 203 206 207 204 202 201 202 196 185 185 181 179 183 188 188 184 184 184 181 186 192 193 185 180 187 194 193 192 186 180 182 178 177 179 175 173 173 172 178 184 187 190 193 194 194 192 193 188
194 200 202 202 202 203 202 202 206 202 201 201 193 191 185 182 190 196 194 190 186 181 182 188 195 196 180 177 190 196 190 184 181 179 181 181 183 184 180 180 180 180 185 188 186 189 198 203 205 206 206 209
192 198 201 202 201 200 198 201 204 198 196 199 196 195 195 194 198 203 200 197 193 190 190 190 193 198 192 189 198 201 188 181 181 178 178 180 182 182 180 183 187 190 193 191 187 191 200 206 211 215 214 219
190 190 195 200 200 196 196 199 195 191 192 194 196 195 198 204 207 210 207 204 203 201 199 197 198 202 203 202 204 204 194 187 186 182 181 183 182 180 182 186 190 196 199 197 195 197 202 207 212 215 217 222
194 189 191 198 201 201 198 197 195 192 193 195 198 198 200 208 212 217 216 213 214 209 204 204 207 209 209 210 210 205 196 193 192 188 188 187 184 184 187 189 192 198 201 201 201 203 206 210 213 215 218 223
196 191 188 194 201 206 202 199 204 205 207 210 210 208 211 215 215 220 221 221 223 215 210 210 212 214 213 215 215 205 198 198 196 194 193 192 190 191 193 193 194 200 203 203 204 205 210 213 215 218 220 222
202 194 191 194 198 204 205 204 208 213 218 222 220 219 220 221 221 224 224 225 228 222 218 217 217 217 218 220 217 204 201 202 200 196 195 196 196 196 198 196 197 202 205 206 206 207 211 214 216 219 221 222
210 203 197 197 196 202 207 208 211 218 225 225 221 220 223 225 225 227 230 232 232 229 227 225 223 222 225 225 215 205 206 207 204 200 197 199 200 201 202 200 200 205 207 208 208 210 213 215 216 218 220 221
213 211 207 203 200 202 206 209 214 219 223 224 220 217 222 224 224 228 233 237 239 238 238 234 229 229 231 228 217 211 212 211 208 205 202 203 203 203 206 204 203 207 209 209 210 211 214 215 216 218 220 221
212 214 216 211 205 202 203 206 211 214 217 220 220 219 221 220 219 227 231 235 242 246 245 241 236 236 234 227 222 219 219 217 213 209 207 209 208 206 209 209 206 210 211 211 212 213 216 217 217 220 222 224
213 215 220 218 212 207 206 207 209 214 215 217 220 222 220 216 216 223 229 230 235 242 246 245 242 242 236 229 228 224 222 222 217 211 210 212 212 210 212 213 211 214 215 213 214 216 219 221 222 226 227 228
220 218 221 222 217 211 210 211 212 216 217 217 219 223 221 216 217 220 224 228 230 237 243 246 246 245 239 232 231 229 226 228 224 217 214 214 215 215 215 215 213 217 218 216 216 219 223 225 226 230 233 233
229 225 225 227 223 218 217 215 216 218 217 216 217 222 222 219 220 220 222 226 230 237 243 249 250 247 244 236 235 234 230 232 231 223 220 219 217 218 219 218 215 217 219 217 217 219 223 227 230 233 237 238
238 235 233 232 229 227 227 221 221 223 221 220 219 220 222 222 222 223 224 226 229 234 240 249 253 250 248 242 239 238 233 233 234 228 223 222 220 219 221 223 221 221 222 220 219 221 224 228 231 234 239 241
238 237 236 234 230 231 234 229 227 229 227 227 227 226 226 225 223 223 225 228 229 229 233 244 252 252 252 250 245 242 238 236 236 232 227 226 225 222 221 223 224 226 227 225 221 220 225 230 233 237 239 239
239 237 236 235 233 233 236 233 231 232 231 230 234 234 233 231 228 226 226 229 231 231 232 239 248 251 255 256 252 248 244 240 239 237 232 230 229 226 224 223 224 227 229 228 223 218 221 227 232 239 241 241
245 241 238 236 237 235 235 235 235 235 234 232 236 239 239 236 234 232 229 229 232 234 234 236 243 248 251 252 254 253 249 246 245 243 239 235 234 232 230 228 227 229 229 228 226 224 220 216 223 235 242 247
254 248 243 240 239 239 238 239 239 240 239 237 238 243 244 242 239 237 234 232 233 236 236 237 241 245 246 247 251 255 255 253 251 248 244 240 238 238 236 233 231 233 233 228 227 227 224 223 229 237 238 238
268 259 253 249 246 245 244 243 243 245 245 241 241 244 247 248 246 244 241 238 236 237 239 240 242 244 246 247 248 252 256 257 255 253 249 245 242 241 239 236 234 235 236 231 227 226 226 228 231 231 227 225